STARLINK-1903 (46764 NORAD) Tracking and Keplerian Element Data

This shows tracking and keplerian element data for the satellite.

Feedback or suggestion? Click here.




ElementValue
Catalog46764
NameSTARLINK-1903
Epoch Orbit1366
Epoch Day18.25002315
Epoch Year2021
RAAN120.2706
Inclination53.0565
Eccentricity0.0001275
Argument of Perigee84.4088
Mean Anonmoly358.6654
Mean Motion15.06393094
Decay Rate0.00025742
L11 46764U 20074AB 21018.25002315 .00025742 00000-0 17411-2 0 9996
L22 46764 53.0565 120.2706 0001275 84.4088 358.6654 15.06393094 13661

Live tracking and technical data element details for STARLINK-1903 (NORAD 46764). STARLINK-1903 can be tracked NOW for your location showing map with azimuth and elevation plus other details from your city location.

Track the satellite on the map from your city or location and see movement details for azimuth, elevation, latitude, longitude, range, height, and movement on the map or in text.







IsCatalogInMostPopularTable: catalog: 46764, numindb: 29
Update: records affected: 1



GetName: 46764 STARLINK-1903

Hit Count: updated at: Mon, 18 Jan 2021 15:56:38 GMT